GEFSSE_500_meanwind_240.txt.gz
Wind_Speed
3 2 3 4 3 3 2 2 1 2 3 2 3 4 6 6 7 7 8 8 8 8 9 11 12 12 13 13 12 12 11 11 10 10 9 8 8 7 6 6 5 5 5
3 3 3 3 3 3 2 1 1 1 2 2 2 4 5 6 7 7 7 8 7 8 9 11 11 12 12 12 11 12 11 12 12 10 9 8 7 7 6 6 6 5 5
3 3 3 3 3 2 2 1 1 1 1 2 4 4 4 6 7 7 7 7 7 7 8 10 11 11 11 11 10 11 11 12 11 9 8 8 7 6 6 6 6 6 5
3 3 3 3 3 2 2 2 0 1 2 2 4 4 4 5 6 6 7 7 7 8 8 10 10 10 10 9 10 10 10 10 9 8 7 7 7 7 7 6 6 6 6
3 4 4 3 3 2 2 1 1 2 2 3 4 4 5 6 6 6 7 8 8 8 9 10 10 11 10 10 10 10 10 9 9 8 7 7 7 7 7 6 6 6 6
4 4 4 4 3 2 2 1 2 3 3 3 4 4 5 7 7 7 8 9 9 9 9 10 12 12 12 11 11 10 10 10 9 8 8 8 7 7 6 6 5 6 5
4 4 4 4 4 3 2 1 1 1 2 2 3 4 5 6 8 8 8 9 10 10 9 10 11 12 12 12 12 11 10 9 9 8 7 7 6 6 6 5 5 5 4
5 4 4 4 4 3 3 2 1 1 2 2 3 4 5 7 8 9 9 9 10 9 10 10 9 11 12 11 11 9 8 9 8 8 7 7 6 6 6 5 4 4 3
5 5 4 4 3 3 3 2 1 1 1 1 2 3 5 6 8 9 9 9 9 9 9 9 9 8 9 9 9 8 8 8 7 7 7 7 6 6 5 4 4 3 3
6 5 5 4 3 2 2 2 2 1 1 1 3 4 4 6 8 8 8 8 8 8 8 8 8 8 8 8 8 7 7 6 6 6 6 6 5 4 4 4 3 3 2
6 6 6 5 3 2 2 2 2 1 1 2 3 4 5 5 6 7 7 8 7 7 8 9 8 8 8 7 6 6 6 5 5 5 5 4 4 3 3 3 2 1 1
8 7 7 6 5 3 2 3 2 2 2 2 4 5 5 6 6 7 8 7 7 8 8 7 7 7 7 7 6 5 5 4 4 4 3 4 3 2 2 1 1 0 1
8 8 7 7 6 5 3 3 4 3 2 3 4 5 6 6 6 6 6 7 6 6 6 6 6 7 6 6 5 5 4 3 3 3 3 3 2 2 2 1 1 1 2
9 8 8 7 6 6 4 4 4 4 3 3 4 5 7 7 6 6 6 5 5 6 6 5 6 5 5 5 4 3 3 3 4 3 3 2 2 2 2 2 3 3 4
9 9 8 7 7 6 5 4 4 4 4 5 5 5 6 7 7 7 7 6 5 5 5 5 5 5 4 4 3 2 3 3 3 3 3 2 2 2 3 3 4 4 5
11 10 9 9 8 7 5 5 5 4 5 5 6 6 6 6 7 6 6 6 5 4 4 4 5 4 3 2 2 2 2 2 3 3 3 3 3 3 3 4 4 5 5
12 11 9 9 8 7 6 6 5 5 5 5 5 5 5 5 5 5 5 4 4 3 3 3 3 2 1 1 2 2 2 2 2 3 4 5 5 4 5 5 5 6 6
12 11 10 9 8 7 7 6 5 5 5 5 5 4 4 4 4 4 3 3 3 2 1 1 1 1 1 1 2 2 3 3 3 3 4 5 5 5 5 6 6 7 7
12 11 11 10 9 8 8 7 6 5 5 4 4 4 4 4 3 3 3 2 2 2 1 0 1 1 1 2 3 3 3 3 4 5 5 5 5 6 6 6 7 8 8
12 11 11 10 10 10 9 8 7 6 5 5 4 3 3 3 2 2 2 2 1 1 1 1 2 2 2 3 3 4 5 5 5 5 5 5 5 6 7 7 7 8 9
12 11 11 10 10 10 9 8 7 7 6 5 5 5 3 3 2 1 1 1 1 1 2 2 2 2 3 3 4 4 5 5 5 5 5 5 6 7 8 8 9 9 10
12 12 11 10 10 9 9 9 8 7 7 6 6 5 4 3 3 2 1 1 2 2 2 2 2 3 4 4 4 4 4 5 5 5 6 7 7 8 9 10 10 10 11
11 11 11 10 10 9 9 8 8 7 7 6 6 5 5 4 4 3 3 3 3 2 3 2 3 3 3 4 4 5 5 5 6 6 7 8 8 9 9 10 11 11 11
10 10 10 10 9 9 8 7 7 7 6 6 6 6 6 6 5 5 4 4 3 3 3 3 3 4 4 5 5 5 5 5 6 7 8 8 9 10 10 10 10 10 11
9 9 9 9 9 8 8 7 6 6 6 5 5 5 5 5 5 5 5 5 5 5 4 4 4 5 5 6 7 7 7 7 7 8 8 9 9 9 10 10 10 11 11
8 8 8 8 8 8 7 7 6 5 5 4 5 4 4 4 4 4 4 5 5 6 5 5 5 6 6 7 7 7 7 8 8 8 9 9 10 11 11 11 11 12 13

GEFSSE_500_meanwind_246.txt.gz
Wind_Speed
4 4 4 3 3 3 3 3 3 2 3 3 3 3 5 5 6 5 7 8 8 8 10 11 12 12 12 12 12 13 11 12 10 10 9 8 8 7 7 8 7 6 6
6 5 4 4 3 3 3 3 2 2 2 3 3 3 5 6 7 6 7 8 8 9 10 11 11 12 12 12 12 12 11 11 10 10 9 8 8 7 7 7 7 7 6
6 6 5 4 4 4 3 3 3 2 2 2 2 3 5 7 7 7 8 9 9 10 10 11 12 11 11 12 11 11 11 11 10 10 10 8 8 7 7 7 7 6 6
6 6 6 5 4 4 3 2 3 2 3 3 2 3 5 7 8 8 8 10 10 11 11 11 11 10 11 11 11 12 12 11 11 10 9 8 7 7 7 7 7 7 6
6 6 6 5 4 4 3 3 3 3 3 3 3 3 5 7 8 8 8 9 9 11 11 10 11 10 10 11 12 12 13 12 10 9 9 8 8 7 7 7 7 7 6
6 6 6 5 5 4 3 3 3 3 3 3 4 4 5 6 7 7 8 9 9 9 9 10 10 10 10 10 11 12 12 11 10 9 9 8 7 7 6 7 7 6 6
7 6 6 6 5 5 4 3 3 4 4 4 4 4 5 6 6 8 9 9 10 11 11 10 10 10 11 12 12 11 11 10 9 8 7 8 7 7 7 7 7 6 6
7 7 6 6 6 5 5 4 4 5 5 4 4 5 5 5 6 8 9 9 10 11 11 10 10 10 11 13 12 12 11 11 10 8 8 8 8 7 7 7 6 6 5
7 7 7 6 6 6 6 6 6 6 6 5 5 6 6 6 7 9 9 9 10 9 10 11 11 11 12 12 12 12 11 11 10 10 8 7 8 7 7 6 6 6 5
9 8 7 7 7 6 6 6 6 6 6 6 6 6 7 7 8 8 9 8 9 9 9 9 10 11 12 11 11 11 11 10 10 9 8 7 7 6 6 5 5 5 5
9 9 8 7 7 7 6 6 6 7 6 6 6 7 7 7 9 9 8 9 9 8 9 10 9 9 10 10 10 10 9 8 8 8 7 7 6 5 5 5 5 5 4
10 10 9 8 7 6 6 7 7 7 7 7 7 7 7 8 9 9 9 9 9 9 9 9 8 8 9 8 9 8 7 6 6 6 6 5 5 4 4 4 4 4 3
9 10 10 9 8 7 7 7 7 7 8 8 7 8 9 10 9 9 9 9 9 8 8 8 8 8 8 8 8 7 7 6 5 5 5 4 4 4 4 3 3 3 3
10 10 10 10 9 8 8 8 8 8 8 8 8 8 9 9 9 8 8 8 9 8 7 7 8 7 8 8 8 7 6 5 5 5 4 4 3 4 4 3 3 3 3
11 11 10 9 9 9 9 9 9 9 8 9 9 9 9 9 8 8 7 8 8 8 7 7 7 7 6 6 6 6 5 5 5 4 4 4 4 4 4 3 3 3 3
11 11 11 10 9 9 9 9 8 8 9 9 9 8 8 8 8 8 8 7 7 7 7 7 6 6 6 5 5 5 5 4 5 5 4 4 4 4 4 4 3 3 4
12 11 11 10 9 9 9 9 8 8 8 8 8 8 8 7 7 8 8 7 6 6 6 5 5 6 5 5 4 4 4 4 4 4 4 5 4 5 5 4 4 5 5
14 13 12 10 10 9 9 8 8 8 8 8 7 7 7 7 8 8 7 7 6 5 5 5 5 5 5 4 4 4 3 4 4 4 4 4 4 5 5 5 5 5 6
14 13 12 11 10 9 8 8 7 8 8 7 7 6 6 6 7 7 7 6 5 5 4 4 4 4 4 4 3 3 3 3 4 4 4 4 5 5 6 6 6 6 6
13 14 13 12 10 9 8 8 8 7 7 6 6 6 6 5 5 5 5 5 4 4 4 3 3 3 3 3 3 3 3 3 4 4 4 5 5 5 5 6 6 6 7
13 13 13 12 11 10 9 8 8 7 6 6 6 6 6 5 5 5 4 4 3 3 3 2 2 2 2 2 2 2 3 3 4 4 5 5 6 5 6 6 6 7 7
12 12 12 12 11 10 9 9 7 7 6 6 6 6 5 5 5 5 4 3 3 3 3 2 2 2 1 2 2 3 3 3 3 4 5 5 6 6 6 6 7 7 8
12 12 11 11 10 10 9 8 7 6 6 5 5 5 5 5 4 5 4 4 4 4 3 3 2 2 1 1 2 2 3 3 3 4 4 4 5 6 6 6 7 8 8
10 10 11 11 10 10 9 8 7 7 6 5 5 5 5 5 5 6 6 5 5 4 4 3 2 1 0 1 1 2 3 3 3 3 4 5 5 6 6 6 7 7 8
9 9 9 9 9 9 8 8 7 6 6 5 5 5 5 5 5 5 5 5 5 4 4 3 2 2 1 1 2 3 3 4 4 5 5 5 6 6 7 7 7 7 8
6 7 8 8 8 8 7 7 6 6 5 5 4 4 4 4 4 4 4 4 4 3 3 3 3 3 2 2 3 3 3 4 5 6 6 6 6 6 7 8 8 9 9

GEFSSE_500_meanwind_252.txt.gz
Wind_Speed
5 4 4 3 3 3 4 4 4 5 4 4 4 5 7 8 7 7 7 8 8 9 9 10 9 9 9 9 10 10 10 10 9 8 8 7 7 7 6 6 5 5 4
4 4 3 3 3 3 3 4 4 4 4 4 4 5 7 7 7 7 8 8 8 9 9 10 9 9 11 11 10 9 10 9 8 8 8 7 7 6 6 6 6 5 5
4 4 4 3 3 4 4 3 4 4 4 4 3 4 6 8 8 8 8 8 9 9 10 9 10 11 11 10 9 9 9 9 8 8 7 7 7 7 7 6 6 5 5
4 4 4 3 3 4 4 4 4 3 3 3 3 4 5 7 8 9 9 9 9 9 9 9 11 10 9 9 9 9 9 9 9 8 7 7 7 7 7 7 6 5 5
5 4 4 4 3 3 4 4 3 3 3 3 3 4 6 7 8 8 9 9 8 8 8 9 10 10 9 9 9 9 9 9 9 8 8 8 7 6 7 7 6 5 5
5 5 4 4 4 4 4 4 4 4 4 3 4 5 6 7 8 8 8 8 7 7 7 8 9 10 10 9 9 8 8 9 10 9 8 8 7 7 6 6 6 5 4
5 6 5 5 4 4 5 4 4 4 5 4 5 6 6 7 7 8 9 8 8 8 8 8 10 10 9 9 9 9 9 10 10 9 8 8 6 6 6 6 5 5 5
5 6 6 5 5 5 5 5 5 5 4 4 5 7 7 7 8 8 8 9 9 8 7 7 9 10 9 9 10 10 10 10 10 9 8 7 6 6 6 5 5 5 5
6 6 6 6 5 5 5 5 4 5 5 5 6 6 7 7 8 9 8 9 10 9 8 8 9 9 9 9 10 10 11 11 10 9 8 7 6 6 5 5 5 4 4
6 6 6 6 5 5 4 4 5 6 6 6 6 6 7 7 7 9 10 10 10 10 9 9 9 9 9 9 10 11 11 10 9 9 7 6 6 5 4 4 4 4 4
7 7 8 7 6 5 5 5 6 7 7 7 7 7 7 7 8 9 10 9 9 10 10 10 9 9 9 9 10 10 10 9 9 8 7 7 6 5 5 4 4 4 3
8 8 8 8 7 7 6 6 7 8 8 7 8 8 8 8 9 9 9 9 8 10 10 9 8 8 8 8 9 9 9 10 9 8 7 6 5 5 5 4 4 3 3
9 9 8 8 7 7 7 7 8 8 8 8 9 9 9 9 9 10 9 9 8 9 10 9 8 8 8 8 9 9 9 9 8 7 6 5 5 4 4 4 4 4 3
9 9 9 8 8 7 8 8 8 8 8 9 10 10 10 10 10 9 9 8 8 9 8 8 9 8 8 8 9 8 8 7 6 6 5 5 4 4 4 4 4 4 4
9 8 8 8 8 8 8 8 8 9 9 9 9 9 9 9 9 8 8 8 8 8 8 7 7 7 7 7 7 7 6 6 6 5 5 5 5 5 4 4 4 4 5
10 9 8 7 8 8 8 8 8 9 8 9 9 9 8 8 8 7 7 7 7 7 7 6 6 6 6 6 5 5 6 6 5 4 5 5 6 6 5 5 5 6 6
11 10 9 8 8 8 8 8 8 9 9 8 8 8 7 7 7 7 7 6 6 6 6 6 6 5 6 5 5 5 5 5 5 5 5 5 6 6 6 6 6 7 7
11 10 10 9 8 8 8 8 8 8 8 8 8 7 6 6 6 6 6 5 5 5 5 5 5 4 5 4 5 5 5 5 5 5 5 6 6 6 7 7 7 7 8
11 10 10 9 9 8 8 8 8 8 7 7 7 6 5 5 5 5 5 4 4 4 4 4 4 4 4 5 5 5 4 5 5 5 6 7 7 7 7 8 8 8 9
11 10 10 9 8 8 8 7 7 7 7 6 6 5 4 4 4 4 4 3 3 3 4 4 4 4 5 5 5 5 5 5 5 5 6 6 7 7 8 8 9 9 9
11 10 10 9 8 7 7 7 6 7 6 6 6 5 4 4 4 4 4 3 3 2 3 3 4 3 3 4 4 4 5 5 5 6 6 7 7 8 8 8 9 9 9
10 10 10 9 8 8 7 7 6 6 6 6 5 4 4 4 4 3 3 3 3 3 3 4 3 3 3 3 3 4 4 5 5 5 6 7 7 8 9 8 8 9 9
9 9 9 9 8 8 8 7 6 5 5 4 4 3 3 3 3 2 2 2 3 3 2 2 3 3 3 3 4 4 4 4 5 6 6 6 7 7 8 8 9 10 10
8 8 8 8 8 7 7 7 6 6 5 4 3 3 3 3 2 3 3 3 2 2 2 1 1 2 3 3 4 4 4 5 5 6 6 7 7 8 9 10 10 10 11
6 6 7 7 7 7 6 6 6 5 4 3 3 3 2 2 1 2 2 2 2 2 2 2 3 3 3 4 4 4 4 5 6 6 7 7 8 9 10 10 11 11 11
4 5 5 5 5 5 5 5 4 4 3 2 1 1 1 1 1 1 2 1 2 2 3 3 3 4 4 5 5 5 6 6 6 6 7 8 9 10 10 11 11 11 11

GEFSSE_500_meanwind_258.txt.gz
Wind_Speed
4 3 3 4 4 4 4 5 6 6 6 7 7 8 9 9 9 10 10 11 11 10 10 11 12 12 12 12 11 11 10 10 10 8 7 6 7 8 7 6 5 4 4
4 3 3 4 5 5 5 5 5 6 7 7 8 8 10 10 10 11 11 11 11 11 11 11 12 12 11 10 10 9 10 10 10 8 8 7 7 7 6 6 5 4 4
4 3 3 3 4 4 5 5 5 5 6 7 8 8 10 10 9 11 12 11 11 11 11 12 11 11 11 10 10 10 10 10 9 9 8 8 8 7 6 6 5 5 4
3 3 3 3 4 4 4 5 5 6 6 7 8 8 9 10 10 10 11 11 12 12 12 11 11 11 10 10 9 9 9 9 9 8 8 8 8 7 7 7 6 5 5
3 2 2 2 3 4 5 5 5 6 6 7 9 9 9 10 10 11 11 11 12 11 11 10 11 11 10 9 9 10 10 9 9 8 8 8 8 8 7 7 6 5 5
3 2 1 2 3 4 4 4 4 6 7 7 8 8 8 9 10 11 12 12 12 11 10 10 11 11 9 9 10 10 10 10 9 8 8 8 7 7 7 7 6 5 5
3 2 1 2 3 3 4 4 4 6 7 7 7 8 9 9 10 11 12 12 11 10 10 10 10 10 10 10 10 10 10 10 9 9 8 7 7 7 7 7 6 5 5
4 3 2 3 3 3 3 3 4 5 6 7 7 8 8 9 10 11 12 11 11 10 9 9 10 10 10 10 11 11 10 10 10 10 9 8 8 7 7 7 6 5 5
5 4 4 3 3 3 3 2 4 5 5 6 7 8 8 9 10 11 11 11 10 10 9 9 9 9 10 11 11 11 11 10 10 10 9 9 8 7 7 6 5 5 5
4 4 4 3 3 3 2 3 4 5 6 7 7 8 9 9 9 9 10 10 10 10 10 10 10 11 10 10 11 11 11 10 10 10 9 9 8 7 6 6 5 5 4
5 4 4 4 3 3 2 2 4 6 6 7 8 8 8 9 9 9 11 11 11 10 11 10 10 11 10 10 11 10 10 10 9 10 10 9 8 7 7 6 5 5 4
6 5 4 3 3 3 3 3 4 6 7 7 7 8 9 9 10 10 12 12 11 10 10 11 9 10 10 10 11 11 10 9 9 9 10 9 8 7 7 6 6 5 4
6 6 4 4 4 3 4 5 5 5 6 7 7 8 9 10 10 10 11 10 10 10 10 9 9 9 9 9 10 10 10 10 10 9 9 9 8 7 6 6 5 5 4
7 6 6 5 4 4 5 6 6 5 5 7 8 9 10 11 10 10 11 10 9 9 8 7 8 8 8 8 9 9 9 9 10 9 8 8 7 6 6 6 5 4 4
8 7 6 6 5 5 6 7 7 6 7 7 7 9 10 10 10 11 10 10 9 8 8 7 7 8 8 8 8 7 8 8 8 8 7 6 6 6 6 6 6 5 5
8 7 6 7 6 7 7 7 7 7 7 8 8 9 9 10 9 8 8 9 8 8 8 7 7 7 8 8 8 7 7 7 7 5 6 6 7 7 7 6 6 6 5
8 7 7 7 7 7 7 7 7 7 7 8 8 8 9 8 8 7 7 7 7 7 7 7 6 6 6 7 7 6 7 6 6 6 6 6 6 6 7 6 7 7 6
8 7 7 7 7 7 7 7 6 7 7 7 7 7 7 7 6 6 6 6 6 6 7 6 6 6 5 6 5 5 5 6 5 6 6 6 6 6 6 7 7 7 7
8 8 7 7 7 6 6 7 7 7 6 6 6 6 6 6 6 6 5 5 5 6 6 5 5 5 4 4 5 5 5 6 5 6 6 7 7 7 7 7 7 8 8
8 7 7 7 7 6 6 6 6 7 7 6 5 6 6 6 5 5 5 4 4 4 4 4 4 4 4 4 5 5 5 5 5 6 7 7 7 8 8 8 8 9 9
7 7 6 6 6 6 6 5 5 6 6 5 5 5 5 5 5 4 4 4 3 3 3 4 4 4 5 4 4 5 6 6 6 6 6 7 7 8 8 9 9 9 10
6 6 6 5 5 5 5 5 5 5 5 5 4 3 3 3 3 4 3 3 3 2 2 2 3 3 4 4 4 5 5 5 6 6 6 6 7 7 8 9 10 10 10
6 5 5 4 4 4 4 5 5 4 4 4 3 3 3 2 2 3 3 3 3 2 2 2 2 2 3 4 4 5 6 6 6 6 6 6 7 7 8 8 9 10 10
5 5 4 4 3 3 4 4 4 4 3 3 2 2 2 2 3 2 2 3 3 3 3 3 3 3 3 3 4 4 5 5 6 6 6 7 7 8 9 9 9 10 11
4 4 4 3 3 3 3 3 3 3 2 2 1 0 1 3 3 4 3 4 4 4 4 4 4 4 5 5 5 5 5 6 6 6 7 8 8 8 9 10 11 11 11
2 3 3 3 2 2 2 2 2 2 2 1 1 1 2 3 3 3 4 4 5 5 5 5 6 6 6 7 7 6 6 6 7 7 8 9 9 9 10 11 11 12 12